Content
SEND FEEDBACK

Daily
Averages
Monthly
Summary
United States of America

BOSTON, MASSACHUSETTS


Home > North America > United States > Massachusetts
Elevation: 1 meter     Latitude: 42 22N     Longitude: 071 02W

WEATHER
 
SELECT A DAY
Number of Records: 200,389;   Date Range: 1/1/95 - 4/15/14
 
SHARE

PRINT THIS DATA

[ ← Previous Day ]
WEATHER ALMANAC - 1 SEPTEMBER, 2013
[ Next Day → ]
[ °F ]   °C
Weather ElementAverageHighLow
Temperature22.8 °C25 °C (3:18 pm)21 °C (10:05 am)
Dewpoint20.7 °C23 °C (3:18 pm)18.9 °C (5:54 am)
Humidity87.9 %94 % (9:42 am)79 % (5:54 am)
Barometer1011.2 hPa1011.9 hPa (9:42 am)1008.8 hPa (2:54 am)
Wind Speed13.2 km/h33.3 km/h (10:54 am)
Wind Gust44.4 km/h (10:54 am)
Weather ElementAverage
Visibility13 km
Wind DirectionSSW (188.1 °)

Weather ElementTotal
Precipitation23.62 mm
Cooling Degree Days4.7 (Base 18.3)
Growing Degree Days13 (Base 10)
Averaged from 43 records on 1 September, 2013
WEATHER CONDITIONS BREAKOUT
WIND DIRECTION BREAKOUT
WEATHER BY HOUR - 1 SEPTEMBER, 2013
[ °F ]   °C
Local TimeTemperatureDewpointHumidityBarometerVisibilityWind DirectionWind SpeedGust SpeedPrecipitationEventsConditions
1:47 AM23 °C21 °C88 %1009.5 hPa12.9 kmSSW (210°)16.7 km/hOvercast
1:54 AM22.8 °C20.6 °C87 %1009.5 hPa12.9 kmSW (220°)20.4 km/hOvercast
2:29 AM23 °C21 °C88 %1009.1 hPa12.9 kmSW (220°)24.1 km/hMostly Cloudy
2:54 AM23 °C21 °C88 %1008.8 hPa12.9 kmSW (220°)24.1 km/hMostly Cloudy
3:54 AM23 °C21 °C88 %1009.5 hPa12.9 kmWSW (250°)18.5 km/hMostly Cloudy
4:54 AM22.8 °C20.6 °C87 %1009.1 hPa12.9 kmSW (230°)13 km/hMostly Cloudy
5:54 AM22.8 °C18.9 °C79 %1010.2 hPa12.9 kmWSW (240°)13 km/hMostly Cloudy
6:54 AM22.8 °C19.4 °C81 %1010.8 hPa16.1 kmSW (230°)14.8 km/h0 mmOvercast
7:54 AM22.2 °C19.4 °C84 %1011.2 hPa16.1 kmSW (230°)18.5 km/h0 mmOvercast
8:54 AM22.8 °C20.6 °C87 %1011.2 hPa16.1 kmSSW (210°)16.7 km/hOvercast
9:42 AM22 °C21 °C94 %1011.9 hPa2.9 kmSW (220°)22.2 km/h2.03 mmRain-ThunderstormHeavy Thunderstorms and Rain
9:47 AM22 °C20 °C88 %1011.9 hPa3.2 kmSSW (210°)22.2 km/h3.05 mmRain-ThunderstormHeavy Thunderstorms and Rain
9:54 AM21.7 °C19.4 °C87 %1011.5 hPa4.8 kmSSW (210°)20.4 km/hRain-ThunderstormHeavy Thunderstorms and Rain
10:05 AM21 °C19 °C88 %1011.5 hPa3.2 kmSSW (210°)18.5 km/h2.54 mmRain-ThunderstormHeavy Thunderstorms and Rain
10:15 AM21 °C20 °C94 %1011.5 hPa14.5 kmSouth (190°)9.3 km/h3.05 mmRain-ThunderstormLight Thunderstorms and Rain
10:35 AM22 °C20 °C88 %1011.9 hPa16.1 kmWSW (250°)18.5 km/h29.6 km/h3.3 mmOvercast
10:54 AM21.7 °C19.4 °C87 %1011.5 hPa14.5 kmWSW (240°)33.3 km/h44.4 km/h3.3 mmRainLight Rain
11:07 AM22 °C19 °C83 %1011.5 hPa4 kmWSW (250°)11.1 km/h1.78 mmRainLight Rain
11:11 AM22 °C19 °C83 %1011.5 hPa8 kmWSW (240°)11.1 km/h2.03 mmRainLight Rain
11:54 AM22.8 °C20 °C84 %1011.2 hPa16.1 kmSSW (210°)14.8 km/h2.29 mmRainLight Rain
12:54 PM22.8 °C20.6 °C87 %1011.5 hPa16.1 kmSW (230°)7.4 km/h0.25 mmOvercast
1:11 PM23 °C21 °C88 %1011.2 hPa16.1 kmSW (220°)11.1 km/h0 mmRainLight Rain
1:54 PM23.3 °C21.7 °C91 %1011.2 hPa14.5 kmSouth (190°)11.1 km/h0 mmOvercast
2:22 PM24 °C22 °C89 %1011.2 hPa16.1 kmSouth (170°)5.6 km/hOvercast
2:31 PM24 °C22 °C89 %1011.2 hPa14.5 kmCalmOvercast
2:45 PM24 °C22 °C89 %1011.2 hPa16.1 kmSouth (180°)5.6 km/hOvercast
2:54 PM24.4 °C22.2 °C87 %1010.8 hPa16.1 kmSW (220°)7.4 km/hOvercast
3:18 PM25 °C23 °C89 %1010.8 hPa12.9 kmCalmOvercast
3:54 PM24.4 °C22.2 °C87 %1010.8 hPa14.5 kmESE (120°)9.3 km/hOvercast
4:05 PM24 °C22 °C89 %1010.5 hPa16.1 kmENE (70°)13 km/hMostly Cloudy
4:54 PM23.3 °C20.6 °C85 %1010.8 hPa16.1 kmEast (100°)9.3 km/hOvercast
5:35 PM23 °C21 °C88 %1010.8 hPa14.5 kmEast (100°)7.4 km/hMostly Cloudy
5:54 PM22.8 °C20.6 °C87 %1010.8 hPa14.5 kmSE (130°)9.3 km/hMostly Cloudy
6:54 PM22.2 °C20 °C87 %1010.8 hPa12.9 kmSouth (170°)11.1 km/hOvercast
7:54 PM22.8 °C21.1 °C90 %1011.2 hPa16.1 kmSouth (190°)11.1 km/hMostly Cloudy
8:54 PM22.8 °C21.1 °C90 %1011.5 hPa16.1 kmSouth (170°)7.4 km/hScattered Clouds
9:54 PM22 °C21 °C94 %1011.9 hPa14.5 kmSouth (180°)11.1 km/hMostly Cloudy
10:02 PM22 °C21 °C94 %1011.5 hPa12.9 kmSouth (190°)9.3 km/hScattered Clouds
10:54 PM22.2 °C21.1 °C93 %1011.9 hPa14.5 kmSouth (190°)11.1 km/hMostly Cloudy
11:13 PM23 °C21 °C88 %1011.9 hPa12.9 kmSouth (190°)14.8 km/hOvercast
11:26 PM23 °C21 °C88 %1011.9 hPa12.9 kmSSW (200°)14.8 km/hOvercast
11:44 PM23 °C21 °C88 %1011.9 hPa12.9 kmSouth (190°)9.3 km/hOvercast
11:54 PM22.8 °C21.1 °C90 %1011.9 hPa14.5 kmSSW (200°)9.3 km/hOvercast
Hourly data recorded from KBOS, located 1.08 kilometers away from Boston, Massachusetts







STORIES FROM OUR PARTNERS